Location: Key Biscayne
(25.6930°N, 80.1630°W)
Time: 03:28:56
(UTC-04:00)

CZ-2D R/B - Visible Passes

Search period start: 23 August 2014 00:00
Search period end: 02 September 2014 00:00
Orbit: 537 x 554 km, 97.6° (Epoch: 22 August)

Date Brightness Start Highest point End Pass type
(mag) Time Alt. Az. Time Alt. Az. Time Alt. Az.
23 Aug 3.6 21:04:50 11° S 21:08:35 67° W 21:12:29 10° NNW visible
24 Aug 3.3 20:59:14 11° S 21:02:56 82° WSW 21:06:52 10° NNW visible
25 Aug 3.2 20:53:37 12° SSE 20:57:17 82° ENE 21:01:13 10° N visible
26 Aug 3.2 20:48:00 12° SSE 20:51:38 68° ENE 20:55:33 10° N visible
27 Aug 3.4 20:42:23 11° SSE 20:46:00 55° ENE 20:49:51 10° N visible
28 Aug 3.6 20:36:47 11° SSE 20:40:21 45° ENE 20:44:07 10° N visible
29 Aug 3.9 20:31:10 11° SE 20:34:42 37° ENE 20:38:22 10° N visible
30 Aug 4.1 20:25:35 10° SE 20:29:04 31° ENE 20:32:34 10° NNE visible
30 Aug 6.4 22:02:31 10° WSW 22:03:41 11° W 22:04:52 10° WNW visible
31 Aug 4.4 20:20:08 10° SE 20:23:25 26° ENE 20:26:44 10° NNE visible
31 Aug 6.2 21:56:01 10° SW 21:57:59 14° W 21:59:58 10° WNW visible
01 Sep 4.6 20:14:43 10° SE 20:17:47 22° ENE 20:20:52 10° NNE visible
01 Sep 6.1 21:49:58 11° SW 21:52:17 16° W 21:54:47 10° WNW visible
